Regional Weather Roundup
Issued by NWS

Home | Current Version | Previous Version | Graphics & Text | Print | Product List | Glossary On
Versions: 1 2 3 4 5 6 7 8 9 10 11 12 13 14 15 16 17 18 19 20 21 22 23 24 25 26 27 28 29 30 31 32 33 34 35 36 37 38 39 40 41 42 43 44 45 46 47 48 49 50
000
ASUS43 KOAX 030710
RWRNE

WEATHER ROUNDUP FOR NEBRASKA
NATIONAL WEATHER SERVICE OMAHA NE
200 AM CDT FRI JUL 03 2015

NOTES: SATELLITE DATA IS BEING USED TO AUGMENT CLOUD COVER ABOVE
       12000 FEET.
       "FAIR" INDICATES FEW OR NO CLOUDS BELOW 12,000 FEET WITH NO
       SIGNIFICANT WEATHER AND/OR OBSTRUCTIONS TO VISIBILITY.

  * THESE STATIONS DO NOT REPORT WEATHER SUCH AS RAIN...SNOW OR FOG.

NEZ001>004-019>022-054>056-030800-
NEBRASKA PANHANDLE

CITY           SKY/WX    TMP DP  RH WIND       PRES   REMARKS
SCOTTSBLUFF    PTCLDY    65  61  87 NE5       30.13F
ALLIANCE       MOCLDY    61  58  90 W3        30.12S
CHADRON        CLEAR     61  59  93 CALM      30.10S
KIMBALL          N/A    N/A N/A N/A MISG        N/A
SIDNEY         MOCLDY    62  59  90 CALM      30.16S
$$

NEZ057>060-069>072-079>082-030800-
SOUTHWEST NEBRASKA

CITY           SKY/WX    TMP DP  RH WIND       PRES   REMARKS
NORTH PLATTE   CLEAR     61  57  87 CALM      30.06S
IMPERIAL       CLEAR     62  58  86 NE6       30.08F
LEXINGTON      CLEAR     62  60  95 CALM      30.04S FOG
MCCOOK         CLEAR     64  59  83 CALM      30.04S
OGALLALA       CLEAR     62  60  95 W5        30.09S
$$

NEZ005>010-023>029-035>040-094-030800-
NORTH CENTRAL NEBRASKA

CITY           SKY/WX    TMP DP  RH WIND       PRES   REMARKS
VALENTINE      CLEAR     60  58  92 W6        30.05S
AINSWORTH      CLEAR     60  60  99 CALM      30.05S FOG
BROKEN BOW     MOCLDY    62  61  96 E3        30.04S
O`NEILL        CLOUDY    65  64  97 CALM      30.04S FOG
ORD            CLOUDY    64  60  87 CALM      30.02S
THEDFORD       CLEAR     61  59  94 CALM      30.07F FOG
$$

NEZ041-046>049-061>064-073>077-083>087-030800-
SOUTH CENTRAL NEBRASKA

CITY           SKY/WX    TMP DP  RH WIND       PRES   REMARKS
GRAND ISLAND   CLOUDY    66  64  93 N6        30.01S FOG
AURORA         CLOUDY    66  66 100 NE6       30.00S FOG
HASTINGS       CLOUDY    66  63  90 NE8       30.00S
HEBRON         CLOUDY    69  66  92 E6        29.95S FOG
HOLDREGE       PTCLDY    62  60  93 CALM      30.02S FOG
KEARNEY *      CLOUDY    63  61  94 NE7       30.02S
YORK           CLOUDY    66  66 100 NE7       29.99S FOG
$$

NEZ011>018-030>034-042>045-030800-
NORTHEAST NEBRASKA

CITY           SKY/WX    TMP DP  RH WIND       PRES   REMARKS
NORFOLK        MOCLDY    63  62  97 CALM      30.01S FOG
ALBION         CLOUDY    64  60  85 CALM      30.02F
BLAIR          MOCLDY    60  55  83 NE6       29.99S
COLUMBUS *     CLOUDY    64  59  82 CALM      30.01S
FREMONT        CLOUDY    64  61  88 CALM      30.01R
TEKAMAH        CLOUDY    61  59  93 CALM      30.00S
WAYNE          CLOUDY    61  59  94 CALM      30.02S
$$

NEZ050>053-065>068-078-088>093-030800-
SOUTHEAST NEBRASKA

CITY           SKY/WX    TMP DP  RH WIND       PRES   REMARKS
LINCOLN        CLOUDY    68  64  87 NE8       29.98S
OMAHA EPPLEY   MOCLDY    63  54  72 CALM      29.99S
BEATRICE       RAIN      67  66  96 E5        29.96S
FALLS CITY     CLOUDY    65  60  84 E8        29.95S
NEBRASKA CITY  CLOUDY    65  63  93 E6        29.97F
PLATTSMOUTH    CLOUDY    63  56  80 E7        29.98F
$$

NEZ044-045-051>053-067-030800-
OMAHA AREA

CITY           SKY/WX    TMP DP  RH WIND       PRES   REMARKS
OMAHA EPPLEY   MOCLDY    63  54  72 CALM      29.99S
BLAIR          MOCLDY    60  55  83 NE6       29.99S
FREMONT        CLOUDY    64  61  88 CALM      30.01R
MILLARD        PTCLDY    64  58  79 CALM      29.98S
OFFUTT AFB     MOCLDY    63  56  78 E5        29.98S
PLATTSMOUTH    CLOUDY    63  56  80 E7        29.98F
WAHOO          CLOUDY    64  62  93 N5        29.99S
$$



USA.gov is the U.S. government's official web portal to all federal, state and local government web resources and services.